Weather History for Chehalis, WA

Change the Weather History Date:

Monday, February 10, 2014

  Actual Average (KOLM) Record (KOLM)
Temperature  
Mean Temperature 40 °F 41 °F  
Max Temperature 46 °F 49 °F 66 °F (1963)
Min Temperature 33 °F 33 °F 15 °F (1982)
Degree Days  
Heating Degree Days 26 24  
Month to date heating degree days 241  
Since 1 July heating degree days 3292  
Cooling Degree Days 0 0  
Month to date cooling degree days 0  
Year to date cooling degree days 0  
Moisture  
Dew Point 39 °F    
Average Humidity 91    
Maximum Humidity 100    
Minimum Humidity 81    
Precipitation  
Precipitation 0.08 in 0.20 in 1.22 in (1990)
Month to date precipitation 2.03  
Year to date precipitation 9.87  
Sea Level Pressure  
Sea Level Pressure 30.09 in    
Wind  
Wind Speed 9 mph (South)    
Max Wind Speed 17 mph    
Max Gust Speed 24 mph    
Visibility 9 miles    
Events Rain    
T = Trace of Precipitation, MM = Missing Value Source: NWS Daily Summary

Daily Weather History Graph

Daily Weather History Graph

Search for Another Location

Airport:

Trip Planner

Search our weather history database for the weather conditions in past years. The results will help you decide how hot, cold, wet, or windy it might be!

Date:

Astronomy

Feb. 10, 2014 Rise Set
Actual Time 7:23 AM PST 5:29 PM PST
Civil Twilight 6:51 AM PST 6:01 PM PST
Nautical Twilight 6:16 AM PST 6:36 PM PST
Astronomical Twilight 5:41 AM PST 7:11 PM PST
Moon 1:57 PM PST (2/10) 4:27 AM PST (2/10)
Length of Visible Light 11h 09m
Length of Day
10h 06m
Waxing Gibbous, 85% of the Moon is Illuminated
Feb 10
Waxing Gibbous
Feb 14
Full
Feb 22
Last Quarter
Mar 1
New
Mar 8
First Quarter

Hourly Weather History & Observations

Time (PST) Temp. Windchill Dew Point Humidity Pressure Visibility Wind Dir Wind Speed Gust Speed Precip Events Conditions
12:15 AM 33.8 °F 30.8 °F 33.8 °F 100% 30.08 in 2.0 mi WSW 3.5 mph - N/A   Overcast
12:35 AM 35.6 °F 31.7 °F 35.6 °F 100% 30.07 in 6.0 mi South 4.6 mph - N/A   Overcast
12:55 AM 35.6 °F 29.9 °F 35.6 °F 100% 30.07 in 6.0 mi South 6.9 mph - N/A   Overcast
1:15 AM 35.6 °F 28.6 °F 35.6 °F 100% 30.07 in 5.0 mi South 9.2 mph - N/A   Mostly Cloudy
1:35 AM 35.6 °F 28.6 °F 35.6 °F 100% 30.06 in 3.0 mi South 9.2 mph - 0.01 in   Mostly Cloudy
1:55 AM 35.6 °F 29.2 °F 35.6 °F 100% 30.07 in 5.0 mi South 8.1 mph - 0.01 in   Overcast
2:15 AM 35.6 °F 28.6 °F 35.6 °F 100% 30.06 in 5.0 mi South 9.2 mph - N/A   Overcast
2:35 AM 35.6 °F 29.2 °F 35.6 °F 100% 30.06 in 5.0 mi South 8.1 mph - N/A   Overcast
2:55 AM 35.6 °F 28.0 °F 35.6 °F 100% 30.06 in 5.0 mi South 10.4 mph 16.1 mph N/A Rain Light Rain
3:15 AM 35.6 °F 29.9 °F 35.6 °F 100% 30.05 in 7.0 mi South 6.9 mph - N/A   Overcast
3:35 AM 35.6 °F 29.2 °F 35.6 °F 100% 30.05 in 9.0 mi South 8.1 mph - 0.01 in   Overcast
3:55 AM 35.6 °F 28.6 °F 35.6 °F 100% 30.05 in 10.0 mi South 9.2 mph - 0.01 in   Overcast
4:15 AM 35.6 °F 28.6 °F 35.6 °F 100% 30.05 in 10.0 mi South 9.2 mph - N/A   Overcast
4:35 AM 35.6 °F 28.6 °F 35.6 °F 100% 30.05 in 10.0 mi South 9.2 mph 16.1 mph N/A   Overcast
4:55 AM 35.6 °F 28.0 °F 33.8 °F 93% 30.05 in 10.0 mi South 10.4 mph 16.1 mph N/A   Overcast
5:15 AM 35.6 °F 29.2 °F 33.8 °F 93% 30.04 in 10.0 mi South 8.1 mph 16.1 mph N/A   Overcast
5:35 AM 35.6 °F 28.6 °F 33.8 °F 93% 30.04 in 10.0 mi South 9.2 mph - N/A   Overcast
5:55 AM 37.4 °F 29.3 °F 33.8 °F 87% 30.04 in 10.0 mi South 12.7 mph - N/A   Overcast
6:15 AM 35.6 °F 26.6 °F 33.8 °F 93% 30.02 in 10.0 mi South 13.8 mph 21.9 mph N/A   Overcast
6:35 AM 37.4 °F 29.8 °F 35.6 °F 93% 30.03 in 10.0 mi South 11.5 mph - N/A   Mostly Cloudy
6:55 AM 37.4 °F 30.3 °F 35.6 °F 93% 30.04 in 10.0 mi South 10.4 mph 16.1 mph N/A   Overcast
7:15 AM 39.2 °F 30.2 °F 35.6 °F 87% 30.05 in 10.0 mi South 17.3 mph 23.0 mph N/A   Overcast
7:35 AM 39.2 °F 30.5 °F 37.4 °F 93% 30.06 in 10.0 mi South 16.1 mph 19.6 mph N/A   Overcast
7:55 AM 39.2 °F 30.2 °F 37.4 °F 93% 30.06 in 10.0 mi South 17.3 mph 24.2 mph N/A   Overcast
8:15 AM 39.2 °F 30.8 °F 35.6 °F 87% 30.07 in 10.0 mi South 15.0 mph 23.0 mph N/A   Overcast
8:35 AM 39.2 °F 30.5 °F 35.6 °F 87% 30.07 in 10.0 mi South 16.1 mph 23.0 mph N/A   Mostly Cloudy
8:55 AM 39.2 °F 31.2 °F 35.6 °F 87% 30.08 in 10.0 mi South 13.8 mph 23.0 mph N/A   Mostly Cloudy
9:15 AM 39.2 °F 31.2 °F 35.6 °F 87% 30.09 in 10.0 mi South 13.8 mph 19.6 mph N/A   Mostly Cloudy
9:35 AM 39.2 °F 32.0 °F 35.6 °F 87% 30.09 in 10.0 mi South 11.5 mph 19.6 mph N/A   Overcast
9:55 AM 41.0 °F 34.3 °F 37.4 °F 87% 30.10 in 10.0 mi South 11.5 mph 16.1 mph N/A   Overcast
10:15 AM 41.0 °F 33.9 °F 37.4 °F 87% 30.10 in 10.0 mi South 12.7 mph 18.4 mph N/A   Overcast
10:35 AM 41.0 °F 34.3 °F 37.4 °F 87% 30.11 in 10.0 mi South 11.5 mph 19.6 mph N/A   Overcast
10:55 AM 41.0 °F 34.7 °F 37.4 °F 87% 30.12 in 10.0 mi South 10.4 mph - N/A   Overcast
11:15 AM 42.8 °F 37.0 °F 39.2 °F 87% 30.11 in 10.0 mi South 10.4 mph - N/A   Mostly Cloudy
11:35 AM 44.6 °F 38.4 °F 39.2 °F 81% 30.11 in 10.0 mi South 12.7 mph 17.3 mph N/A   Mostly Cloudy
11:55 AM 44.6 °F 38.8 °F 39.2 °F 81% 30.11 in 10.0 mi South 11.5 mph 17.3 mph N/A   Mostly Cloudy
12:15 PM 44.6 °F 39.7 °F 39.2 °F 81% 30.11 in 10.0 mi South 9.2 mph - N/A   Overcast
12:35 PM 44.6 °F 38.4 °F 39.2 °F 81% 30.11 in 10.0 mi South 12.7 mph - N/A   Overcast
12:55 PM 46.4 °F 41.5 °F 41.0 °F 81% 30.11 in 10.0 mi South 10.4 mph 17.3 mph N/A   Overcast
1:15 PM 46.4 °F 42.4 °F 41.0 °F 81% 30.12 in 10.0 mi South 8.1 mph - N/A   Overcast
1:35 PM 46.4 °F 41.9 °F 41.0 °F 81% 30.11 in 10.0 mi SSE 9.2 mph - N/A   Overcast
1:55 PM 46.4 °F 41.1 °F 41.0 °F 81% 30.11 in 10.0 mi South 11.5 mph - N/A   Mostly Cloudy
2:15 PM 46.4 °F 41.1 °F 41.0 °F 81% 30.11 in 10.0 mi South 11.5 mph 16.1 mph N/A   Mostly Cloudy
2:35 PM 46.4 °F 40.7 °F 41.0 °F 81% 30.10 in 10.0 mi SSE 12.7 mph 17.3 mph N/A   Mostly Cloudy
2:55 PM 46.4 °F 40.7 °F 41.0 °F 81% 30.09 in 10.0 mi South 12.7 mph 21.9 mph N/A   Overcast
3:15 PM 44.6 °F 38.8 °F 41.0 °F 87% 30.09 in 10.0 mi South 11.5 mph 18.4 mph N/A   Overcast
3:35 PM 44.6 °F 40.2 °F 41.0 °F 87% 30.09 in 9.0 mi SSW 8.1 mph - N/A   Overcast
3:55 PM 44.6 °F 38.4 °F 41.0 °F 87% 30.09 in 10.0 mi South 12.7 mph 19.6 mph N/A Rain Light Rain
4:15 PM 44.6 °F 38.8 °F 41.0 °F 87% 30.10 in 5.0 mi SSW 11.5 mph 17.3 mph N/A Rain Light Rain
4:35 PM 44.6 °F 38.8 °F 41.0 °F 87% 30.09 in 10.0 mi South 11.5 mph 16.1 mph 0.01 in   Overcast
4:55 PM 44.6 °F 38.8 °F 41.0 °F 87% 30.10 in 10.0 mi South 11.5 mph 16.1 mph 0.02 in Rain Light Rain
5:15 PM 44.6 °F 39.7 °F 41.0 °F 87% 30.12 in 7.0 mi SSW 9.2 mph - N/A Rain Light Rain
5:35 PM 42.8 °F 37.0 °F 41.0 °F 93% 30.11 in 3.0 mi South 10.4 mph 17.3 mph N/A   Overcast
5:55 PM 42.8 °F 36.6 °F 41.0 °F 93% 30.12 in 6.0 mi South 11.5 mph 17.3 mph 0.02 in   Overcast
6:15 PM 42.8 °F 38.0 °F 41.0 °F 93% 30.12 in 5.0 mi South 8.1 mph - 0.01 in Rain Light Rain
6:35 PM 42.8 °F 38.0 °F 41.0 °F 93% 30.12 in 10.0 mi South 8.1 mph - 0.01 in   Overcast
6:55 PM 42.8 °F 39.3 °F 41.0 °F 93% 30.12 in 10.0 mi South 5.8 mph - 0.01 in   Overcast
7:15 PM 42.8 °F 39.3 °F 41.0 °F 93% 30.11 in 10.0 mi South 5.8 mph - N/A   Overcast
7:35 PM 42.8 °F 38.6 °F 41.0 °F 93% 30.11 in 10.0 mi South 6.9 mph - N/A   Overcast
7:55 PM 42.8 °F 39.3 °F 41.0 °F 93% 30.10 in 10.0 mi South 5.8 mph - N/A   Overcast
8:15 PM 42.8 °F 39.3 °F 41.0 °F 93% 30.10 in 10.0 mi SSW 5.8 mph - N/A   Overcast
8:35 PM 42.8 °F 39.3 °F 41.0 °F 93% 30.10 in 10.0 mi SSW 5.8 mph - N/A   Overcast
8:55 PM 44.6 °F 40.7 °F 41.0 °F 87% 30.10 in 10.0 mi SSW 6.9 mph - N/A   Overcast
9:15 PM 44.6 °F 40.2 °F 41.0 °F 87% 30.10 in 9.0 mi South 8.1 mph - N/A   Overcast
9:35 PM 44.6 °F 41.4 °F 41.0 °F 87% 30.10 in 10.0 mi South 5.8 mph - N/A   Overcast
9:55 PM 42.8 °F 40.1 °F 42.8 °F 100% 30.10 in 9.0 mi SSW 4.6 mph - N/A   Overcast
10:15 PM 42.8 °F 39.3 °F 41.0 °F 93% 30.10 in 10.0 mi South 5.8 mph - N/A   Overcast
10:35 PM 42.8 °F 38.6 °F 42.8 °F 100% 30.11 in 10.0 mi SSW 6.9 mph - N/A   Overcast
10:55 PM 44.6 °F 40.7 °F 42.8 °F 93% 30.11 in 10.0 mi South 6.9 mph - N/A   Overcast
11:15 PM 44.6 °F 40.7 °F 42.8 °F 93% 30.11 in 10.0 mi South 6.9 mph - N/A   Overcast
11:35 PM 44.6 °F 40.7 °F 42.8 °F 93% 30.12 in 6.0 mi South 6.9 mph - N/A Rain Light Rain
11:55 PM 42.8 °F 38.6 °F 42.8 °F 100% 30.12 in 7.0 mi South 6.9 mph - 0.01 in   Overcast